weather.gov     
National Weather Service

Terminal Aerodrome Forecast
NWS Homepage
This page is being discontinued on March 12, 2014.
The same data is available at this site. Please update your bookmarks.
Thank you, and we apologize for the inconvenience.
Please send an email to SR-SRH.Webmaster@noaa.gov with any concerns.


Current Version
Previous Version:    01  02  03  04  05  06  07  08  09  10  11  12  13  14  15  16  17  18  19  20  21  22  23  24  25  26  27  28  29  30  
   31  
[Printable]
248
FTUS46 KEKA 241148
TAFUKI
TAF
KUKI 241148Z 2412/2512 00000KT 1SM BR OVC002
     FM241600 15004KT P6SM FEW002 SCT010
     FM242000 15011KT P6SM FEW250
     FM250300 16006KT P6SM OVC250
     FM250900 15008KT P6SM -RA OVC015=




248
FTUS46 KEKA 241148
TAFUKI
TAF
KUKI 241148Z 2412/2512 00000KT 1SM BR OVC002
     FM241600 15004KT P6SM FEW002 SCT010
     FM242000 15011KT P6SM FEW250
     FM250300 16006KT P6SM OVC250
     FM250900 15008KT P6SM -RA OVC015=


U.S. Dept. of Commerce
NOAA National Weather Service
1325 East West Highway
Silver Spring, MD 20910
E-mail: w-nws.webmaster@noaa.gov
Page last modified: May 16, 2007
NATIONAL WEATHER SERVICE: for Safety, for Work, for Fun - FOR LIFE